Location: Asheville, NC
(35.6000°N, 82.5500°W)
Time: 08:19:54
(UTC-04:00)

MOZHAYETS 4 - Visible Passes

Search period start: 18 July 2018 00:00
Search period end: 28 July 2018 00:00
Orbit: 662 x 681 km, 98.0° (Epoch: 18 July)

Date Brightness Start Highest point End Pass type
(mag) Time Alt. Az. Time Alt. Az. Time Alt. Az.
18 Jul 10.1 02:43:11 14° E 02:44:27 16° ENE 02:47:09 10° NNE visible
18 Jul 8.1 04:21:25 42° W 04:21:25 42° W 04:25:31 10° NNW visible
19 Jul 9.0 03:16:49 34° E 03:17:21 35° ENE 03:21:29 10° N visible
19 Jul 9.3 04:55:04 18° W 04:55:04 18° W 04:57:42 10° NW visible
20 Jul 7.6 03:50:28 83° ENE 03:50:28 83° ENE 03:54:59 10° N visible
21 Jul 10.0 02:45:53 16° E 02:46:52 17° ENE 02:49:45 10° NNE visible
21 Jul 8.3 04:24:07 39° W 04:24:07 39° W 04:27:56 10° NNW visible
22 Jul 8.9 03:19:31 37° E 03:19:47 37° ENE 03:23:58 10° N visible
22 Jul 9.4 04:57:45 17° W 04:57:45 17° W 05:00:01 10° NW visible
23 Jul 7.7 03:53:10 79° N 03:53:10 79° N 03:57:27 10° NNW visible
24 Jul 10.0 02:48:34 17° E 02:49:18 18° ENE 02:52:20 10° NNE visible
24 Jul 8.5 04:26:49 35° WNW 04:26:49 35° WNW 04:30:20 10° NNW visible
25 Jul 8.8 03:22:13 39° ENE 03:22:14 39° ENE 03:26:28 10° N visible
25 Jul 9.5 05:00:28 15° WNW 05:00:28 15° WNW 05:02:19 10° NW visible
26 Jul 7.8 03:55:52 69° NNW 03:55:52 69° NNW 03:59:54 10° NNW visible
27 Jul 9.9 02:51:16 19° ENE 02:51:43 19° ENE 02:54:54 10° NNE visible
27 Jul 8.7 04:29:31 31° WNW 04:29:31 31° WNW 04:32:44 10° NNW visible
